WOWS Stats & Numbers - World of Warships statistics

Transfers



[V-T3R] VALTER'S BANDIT$
Date Player WN8 Win Rate Battles
25.03.2017 __Saitama 2 565 57.52% 7 145
23.03.2017 mortuary91 2 209 54.25% 33 715
22.03.2017 Jared_Leto_ 2 577 62.18% 3 649
22.03.2017 Angry_Angel 2 817 61.51% 2 494
22.03.2017 Evil__NOOB 2 724 62.24% 4 205
21.03.2017 VOCFTW 2 705 60.75% 22 473
21.03.2017 guest273 2 048 68.95% 33 462
21.03.2017 Nishizumi_Kojiro 1 957 54.81% 13 296
21.03.2017 baterkast 2 034 56.34% 13 765
21.03.2017 Waemoth 2 187 55.59% 25 356
21.03.2017 DerDissident 2 438 57.97% 7 927
21.03.2017 bubisarba 2 045 55% 14 918
21.03.2017 Fripiukas 1 861 54.75% 17 875
21.03.2017 slogga 1 488 56.39% 61 054
21.03.2017 57_Pixel 2 199 56.89% 24 443
20.03.2017 iM__GenkYFRaNK___ 2 311 56.73% 2 510
20.03.2017 Bosnian__1 2 453 57.5% 17 707
19.03.2017 Bilsterr 2 082 56.05% 8 457
19.03.2017 PandaFromChina 2 113 55.52% 31 138
19.03.2017 AdriYourPersonalSpammer 2 260 55.39% 13 850
19.03.2017 mortuary91 2 209 54.25% 33 715
19.03.2017 Tivadar_L_szl_Kelemen 2 163 58.02% 17 276
19.03.2017 Marikustrollol 2 031 55.27% 20 131
19.03.2017 Mr_Wombat 1 859 53.98% 24 079
19.03.2017 __Gornik__ 1 597 53.56% 37 006
19.03.2017 tomottyboi 1 821 53.53% 9 878
19.03.2017 _SOBRANIE_ 2 131 57.1% 8 220
18.03.2017 Awesome_Gold_User 1 773 52.65% 24 907
18.03.2017 WexxUltra27 2 102 54.46% 18 666
18.03.2017 bubisarba 2 045 55% 14 918
18.03.2017 eKinetic 1 938 53.51% 13 388
17.03.2017 VuileTank 1 946 54.12% 6 199
17.03.2017 Gigater 1 974 54.88% 14 079
17.03.2017 elphantasy 2 163 56.48% 20 684
17.03.2017 InvisibleKillerSRB 1 832 54.13% 16 314
16.03.2017 Starkof 1 905 55.39% 27 848
16.03.2017 Crazy_Noob95 2 135 57.08% 8 513
16.03.2017 Koczkodan_Johnson 2 437 57.05% 32 793
16.03.2017 Peetkomeet 2 735 58% 31 353
16.03.2017 JoeyJ 1 990 56.37% 17 751
16.03.2017 57_Pixel 2 199 56.89% 24 443
16.03.2017 guille186 1 914 53.58% 20 294
16.03.2017 MekeszfromKosd 2 186 55.27% 34 819
16.03.2017 krokodilDandee 2 314 56.7% 30 472
16.03.2017 FreemanNSM 2 015 55.1% 49 976
16.03.2017 DespicableFTB 2 116 55.56% 20 619
16.03.2017 pirke077 1 781 52.23% 49 685
16.03.2017 Icebreaker123 1 971 55.07% 20 047
16.03.2017 WITTE_FREDDY 2 278 57.65% 23 600
16.03.2017 Medjed 2 584 58.65% 20 752
15.03.2017 Coa1998 1 709 53.39% 26 847
15.03.2017 drunkdude 1 555 55.13% 27 969
15.03.2017 MachMichSchrott 1 724 53.47% 22 777
15.03.2017 Jekomac 1 881 54.47% 32 250
15.03.2017 gugibugi1234 2 421 57.55% 5 463
14.03.2017 nemrodpanzer 1 928 53.78% 30 758
14.03.2017 TheBochMan 1 996 54.5% 42 617
14.03.2017 PanSowaa 3 070 62.45% 23 298
13.03.2017 elphantasy 2 163 56.48% 20 684
13.03.2017 InvisibleKillerSRB 1 832 54.13% 16 314
13.03.2017 slogga 1 488 56.39% 61 054
13.03.2017 GILE77 1 639 53.14% 37 280
13.03.2017 Mijo_Peh 2 129 56.01% 78 961
13.03.2017 Blacknoob6 2 281 58.96% 27 195
12.03.2017 PanSowaa 3 070 62.45% 23 298
11.03.2017 NastyAlien 2 442 61.04% 11 179
11.03.2017 _R_O_K_I_ 1 959 56.39% 41 318
11.03.2017 ARES 2 246 56.46% 20 496
10.03.2017 Fripiukas 1 861 54.75% 17 875
10.03.2017 Paragonx01 2 312 57.07% 20 796
09.03.2017 RNG_IS_MY_DADDY 2 841 59.7% 4 325
09.03.2017 kamil19902004 1 992 53.92% 33 086
09.03.2017 Inappropriate_Nick 2 077 57.39% 26 442
09.03.2017 JannisXTM2 2 292 57.68% 10 737
08.03.2017 guest273 2 048 68.95% 33 462
08.03.2017 Paragonx01 2 312 57.07% 20 796
08.03.2017 ExtremeLion04 2 069 55.13% 10 152
08.03.2017 TERRORWEAPON 2 037 54.48% 23 605
08.03.2017 Gianluca27 1 702 51.68% 24 347
08.03.2017 petarpetric3 1 801 53.25% 35 705
08.03.2017 MGL_ 2 322 57.92% 22 199
07.03.2017 Marikustrollol 2 031 55.27% 20 131
07.03.2017 Master_Kudo 2 073 56.13% 7 468
07.03.2017 muua__dib 2 006 56.85% 14 506
07.03.2017 masssive 2 354 57.22% 64 078
07.03.2017 Dr_Ecstasy_ 2 327 55.98% 29 332
06.03.2017 toniri 2 369 61.98% 32 791
06.03.2017 TheBochMan 1 996 54.5% 42 617
06.03.2017 TheCrotchMan 2 115 57.23% 31 930
06.03.2017 DecoTank 1 806 54.89% 34 698
05.03.2017 kamil19902004 1 992 53.92% 33 086
05.03.2017 _M0TiViST 2 174 56.69% 28 055
05.03.2017 _ThePreacher_ 2 219 55.82% 31 530
05.03.2017 MURDOCpower 2 139 55.67% 7 810
04.03.2017 KingPin_ 2 102 55.68% 44 343
03.03.2017 th3skipper 1 839 53.73% 13 429
03.03.2017 katalingo 1 683 52.92% 44 271
03.03.2017 xxX_MLG_Banana_Xxx 4 313 65.25% 4 486
03.03.2017 TheStroy 1 905 54.97% 22 054
03.03.2017 mitar85 1 839 53.91% 37 981
03.03.2017 THE__PUNISHER__ 2 399 58.2% 37 503
03.03.2017 SCOLANATOR 2 155 57.92% 19 002
03.03.2017 7hunders 2 373 58.33% 8 901
03.03.2017 ASSASSIN373 2 039 60.15% 15 514
03.03.2017 Neavy 2 625 61.36% 14 215
03.03.2017 Blacknoob6 2 281 58.96% 27 195
03.03.2017 Flu_ffy 1 751 55.93% 31 550
03.03.2017 GespensterJaeger 1 527 52.98% 36 473
02.03.2017 SCOLANATOR 2 155 57.92% 19 002
02.03.2017 KingPin_ 2 102 55.68% 44 343
02.03.2017 MURDOCpower 2 139 55.67% 7 810
02.03.2017 baterkast 2 034 56.34% 13 765
01.03.2017 Gherwin 2 170 56.26% 21 454
01.03.2017 NersOne 2 516 56.51% 11 825
01.03.2017 TIGER_SILVER 1 909 56.79% 16 920
01.03.2017 Zmiu_Ga_Loma_ 4 611 65.22% 1 340
27.02.2017 ExtremeUnicornWarfare 1 771 52.84% 26 798
27.02.2017 ARES 2 246 56.46% 20 496
27.02.2017 gordan8282 1 954 57.01% 42 734
26.02.2017 muua__dib 2 006 56.85% 14 506
26.02.2017 ExtremeUnicornWarfare 1 771 52.84% 26 798
25.02.2017 SerbianUnicum 2 712 58.63% 11 030
24.02.2017 THE__PUNISHER__ 2 399 58.2% 37 503
23.02.2017 _M0TiViST 2 174 56.69% 28 055
23.02.2017 _Idfc_ 2 708 58.87% 10 864
22.02.2017 Accidental_G3n1us 3 244 63.72% 15 160
21.02.2017 FreemanNSM 2 015 55.1% 49 976
21.02.2017 synQx___ 2 073 56.2% 17 347
21.02.2017 FancyAlexs 2 322 57.54% 9 488
19.02.2017 KingPin_ 2 102 55.68% 44 343
17.02.2017 Neavy 2 625 61.36% 14 215
17.02.2017 superkiller33 2 305 57.49% 5 232
17.02.2017 TECHXPOSE 1 592 52.54% 26 191
17.02.2017 joks256 1 781 55.62% 22 680
17.02.2017 Mom_Get_The_Camera_We 2 095 55.36% 33 966
17.02.2017 Medjed 2 584 58.65% 20 752
17.02.2017 NersOne 2 516 56.51% 11 825
17.02.2017 duckdownkid 1 837 55.98% 32 751
17.02.2017 __Czesio_ 2 214 55.63% 41 826
16.02.2017 FancyAlexs 2 322 57.54% 9 488
16.02.2017 C_A_L_I_B_R_A 1 967 56.09% 42 964
16.02.2017 svvire 2 512 57.67% 27 213
16.02.2017 GLUTES 2 120 55.22% 28 509
15.02.2017 ASSASSIN373 2 039 60.15% 15 514
14.02.2017 mirnestz 1 645 53.6% 27 764
13.02.2017 TIGER_SILVER 1 909 56.79% 16 920
12.02.2017 BTR_semirzmaj 2 087 55.62% 36 311
12.02.2017 krokodilDandee 2 314 56.7% 30 472
11.02.2017 toma_vb 2 101 57.05% 30 653
11.02.2017 _Anas 2 219 58.98% 5 826
11.02.2017 V4syl 2 142 57.27% 13 089
11.02.2017 GLUTES 2 120 55.22% 28 509
10.02.2017 BTR_semirzmaj 2 087 55.62% 36 311
07.02.2017 akreca 1 887 54.45% 25 644
07.02.2017 _TR_8R 1 942 54.22% 25 963
05.02.2017 Batgirl 2 186 57.42% 30 847
05.02.2017 di18rus 3 359 64.61% 3 235
05.02.2017 _Zamasu 3 023 60.42% 3 499
04.02.2017 DespicableFTB 2 116 55.56% 20 619
04.02.2017 BOTPRO 2 265 56.21% 23 187
04.02.2017 duckdownkid 1 837 55.98% 32 751
04.02.2017 _Wanna_Be_Unicum_ 2 631 56.77% 2 133
04.02.2017 synQx___ 2 073 56.2% 17 347
04.02.2017 makso_zr 2 265 56.8% 39 213
03.02.2017 LaGger_SRB 2 003 57.17% 22 841
03.02.2017 amkaabi 1 925 53.5% 36 146
03.02.2017 NVB_Sasuke_ 2 101 54.62% 15 376
03.02.2017 RageBro_Ivanic94 1 848 54.95% 20 579
03.02.2017 Jebivetar_Pero 2 272 55.76% 44 794
03.02.2017 SagittariusB2 2 604 58.96% 26 088
03.02.2017 Dread86 2 704 58.86% 15 312
03.02.2017 _Anas 2 219 58.98% 5 826
02.02.2017 Borat1924__ 1 965 53.95% 54 456
02.02.2017 eKinetic 1 938 53.51% 13 388
02.02.2017 V4syl 2 142 57.27% 13 089
02.02.2017 SandzakBull 1 795 53.42% 36 494
01.02.2017 Timi_ks 1 738 53.54% 24 997
01.02.2017 Tivadar_L_szl_Kelemen 2 163 58.02% 17 276
01.02.2017 _Zamasu 3 023 60.42% 3 499
01.02.2017 J_a_N_g_O 3 998 67.15% 5 123
31.01.2017 Str1ke_
from: [USSR] USSR
1 844 55% 13 939
31.01.2017 tomottyboi 1 821 53.53% 9 878
30.01.2017 PardubicakCze 2 037 56.52% 31 159
30.01.2017 BOTPRO 2 265 56.21% 23 187
30.01.2017 gordan8282 1 954 57.01% 42 734
26.01.2017 _Idfc_ 2 708 58.87% 10 864
24.01.2017 IUTIPatriot 1 539 51.43% 25 501
24.01.2017 _R3Flex 2 592 59.4% 9 293
23.01.2017 Master_Kudo 2 073 56.13% 7 468
23.01.2017 Jucatorul2 3 014 62.85% 11 088
21.01.2017 Princess_Ema 2 965 60.59% 42 539
21.01.2017 Rakumi 2 019 54.14% 14 286
21.01.2017 svvire 2 512 57.67% 27 213
19.01.2017 Kingdanzz 2 512 57.48% 23 135
19.01.2017 di18rus 3 359 64.61% 3 235
19.01.2017 Princess_Ema 2 965 60.59% 42 539
19.01.2017 Coa1998 1 709 53.39% 26 847
19.01.2017 J_a_N_g_O 3 998 67.15% 5 123
18.01.2017 Zmiu_Ga_Loma_ 4 611 65.22% 1 340
17.01.2017 puzzlebreaker 1 954 53.82% 18 390
16.01.2017 DerDissident 2 438 57.97% 7 927
13.01.2017 Geisterjager 1 987 55.77% 19 479
12.01.2017 9th_Warrior 3 365 63.67% 14 498
11.01.2017 1grenata_2tenka 2 503 58.45% 19 959
11.01.2017 makso_zr 2 265 56.8% 39 213
11.01.2017 T_E_S_L_A 2 328 57.56% 19 498
10.01.2017 Sgt_Kiki 2 131 57.21% 29 080
10.01.2017 _R3Flex 2 592 59.4% 9 293
09.01.2017 Sgt_Kiki 2 131 57.21% 29 080
08.01.2017 Coa1998 1 709 53.39% 26 847
06.01.2017 superkiller33 2 305 57.49% 5 232
06.01.2017 _DynamicGameplay_ 1 847 54.6% 39 744
05.01.2017 7hunders 2 373 58.33% 8 901
05.01.2017 __Czesio_ 2 214 55.63% 41 826
05.01.2017 SirTheGozd20 1 825 54.33% 16 926
05.01.2017 noboni 2 267 56.76% 35 261
05.01.2017 Bjelosevic 1 819 53.59% 23 154
04.01.2017 Jebivetar_Pero 2 272 55.76% 44 794
04.01.2017 superkiller33 2 305 57.49% 5 232
04.01.2017 lorthiras 1 555 51.28% 26 783
04.01.2017 Pavlov91 1 676 53.23% 28 755
04.01.2017 superiorsrb 1 663 53.18% 15 116
04.01.2017 ZvoneST 2 004 54.9% 14 866
04.01.2017 mrtvimarijan 1 757 54.97% 32 082
03.01.2017 NersOne 2 516 56.51% 11 825
02.01.2017 Nihon_v2 2 232 58.61% 3 457
02.01.2017 reNEgaDe__ 1 937 53.8% 24 111
01.01.2017 Horri_sniper 2 146 56.65% 12 804
30.12.2016 SrThanatos666 2 240 56.33% 18 357
26.12.2016 AlphaTheIronFate 1 598 53.35% 25 915
24.12.2016 NVB_Sasuke_ 2 101 54.62% 15 376
23.12.2016 thesorin 1 807 53.94% 13 931
23.12.2016 gordan8282 1 954 57.01% 42 734
22.12.2016 Geisterjager 1 987 55.77% 19 479
21.12.2016 DMX__IQ 2 095 55.58% 28 695
21.12.2016 J4Ck__ 3 040 60.4% 16 451
18.12.2016 masssive 2 354 57.22% 64 078
18.12.2016 Dr_Ecstasy_ 2 327 55.98% 29 332
17.12.2016 SandzakD00M 2 017 57.1% 10 792
16.12.2016 ZeusUntouchable 3 020 62.96% 37 286
16.12.2016 Such_Savage 2 118 56.38% 11 191
16.12.2016 mpg20 1 259 50.1% 15 510
15.12.2016 wasili18 2 060 56.38% 5 525
13.12.2016 wasili18 2 060 56.38% 5 525
13.12.2016 __Czesio_ 2 214 55.63% 41 826
12.12.2016 vanForme 2 138 53.83% 18 435
08.12.2016 mani_the_blyatoris 2 275 60.27% 8 240
06.12.2016 SandzakD00M 2 017 57.1% 10 792
06.12.2016 Such_Savage 2 118 56.38% 11 191
05.12.2016 MaximusFantasius 1 921 53.53% 22 735
05.12.2016 NVB_Sasuke_ 2 101 54.62% 15 376
05.12.2016 Wolfzr87 1 934 54.02% 20 833
05.12.2016 mpg20 1 259 50.1% 15 510
03.12.2016 DMX__IQ 2 095 55.58% 28 695
02.12.2016 SrThanatos666 2 240 56.33% 18 357
02.12.2016 9th_Warrior 3 365 63.67% 14 498
01.12.2016 Bataljun 2 239 56.08% 25 301
01.12.2016 Giorgi739 1 968 53.15% 26 258
01.12.2016 Verrucht 2 484 57.89% 23 184
01.12.2016 Angry_Sh4rk 3 114 60.45% 6 069
30.11.2016 BOTPRO 2 265 56.21% 23 187
30.11.2016 __Czesio_ 2 214 55.63% 41 826
29.11.2016 ZeusUntouchable 3 020 62.96% 37 286
29.11.2016 __ANNIHILATOR__EU 2 460 56.9% 17 935
27.11.2016 Dread86 2 704 58.86% 15 312
26.11.2016 Jucatorul2 3 014 62.85% 11 088
26.11.2016 akreca 1 887 54.45% 25 644
26.11.2016 __ANNIHILATOR__EU 2 460 56.9% 17 935
23.11.2016 Horri_sniper 2 146 56.65% 12 804
21.11.2016 lovrima 1 635 53.22% 25 852
20.11.2016 NarodniHeroj 2 020 55.78% 40 183
20.11.2016 Kahega 1 826 53.92% 38 673
18.11.2016 _ThePreacher_ 2 219 55.82% 31 530
18.11.2016 _SOBRANIE_ 2 131 57.1% 8 220
16.11.2016 Infektid 2 018 55.21% 36 144
09.11.2016 Mr_Wombat 1 859 53.98% 24 079
06.11.2016 toma_vb 2 101 57.05% 30 653
06.11.2016 TheStroy 1 905 54.97% 22 054
04.11.2016 TheStroy 1 905 54.97% 22 054
03.11.2016 miskom 1 823 54.46% 44 139
01.11.2016 Styrr 2 175 55.77% 17 168
01.11.2016 McDude2013 2 149 55.16% 38 921
31.10.2016 Samulayo 2 675 58.59% 483
31.10.2016 Imperfection_PL 2 362 56.97% 12 620
30.10.2016 Samulayo 2 675 58.59% 483
28.10.2016 Mom_Get_The_Camera_We 2 095 55.36% 33 966
28.10.2016 BTR_semirzmaj 2 087 55.62% 36 311
28.10.2016 mani_the_blyatoris 2 275 60.27% 8 240
28.10.2016 sostyk 2 012 55.99% 42 526
27.10.2016 jejej111 2 102 55.31% 23 974
27.10.2016 HarderStylezZ 1 909 55.47% 20 728
27.10.2016 QWYX_is_CHEEKIBREEKI_man 1 773 55.47% 57 055
24.10.2016 jejej111 2 102 55.31% 23 974
24.10.2016 neCr00 2 242 60.33% 43 072
24.10.2016 Pisko_ 1 689 53.05% 25 843
24.10.2016 Chokolatt 2 578 59.34% 9 219
24.10.2016 D3adm3n 2 258 56.7% 15 552
22.10.2016 MalaSova 1 903 54.89% 34 492
22.10.2016 flystation 2 804 57.32% 4 021
22.10.2016 LaGger_SRB 2 003 57.17% 22 841
22.10.2016 CalLightman 2 170 55.42% 7 200
22.10.2016 Push_My_Car 2 058 53.69% 53 039
20.10.2016 sostyk 2 012 55.99% 42 526
20.10.2016 MachMichSchrott 1 724 53.47% 22 777
19.10.2016 WITTE_FREDDY 2 278 57.65% 23 600
19.10.2016 joleeZD 1 954 54.86% 39 099
18.10.2016 Iso009 1 598 53.69% 14 661
18.10.2016 Wolfzr87 1 934 54.02% 20 833
17.10.2016 neCr00 2 242 60.33% 43 072
15.10.2016 lav61 2 193 56.99% 6 454
15.10.2016 _SOBRANIE_ 2 131 57.1% 8 220
15.10.2016 nukeftw 2 596 58.07% 4 405
14.10.2016 amkaabi 1 925 53.5% 36 146
14.10.2016 GespensterJaeger 1 527 52.98% 36 473
13.10.2016 __Dream_boy__ 2 346 57.44% 30 979
12.10.2016 Ryuzzaki 1 814 52.49% 42 129
11.10.2016 HarderStylezZ 1 909 55.47% 20 728
11.10.2016 Styrr 2 175 55.77% 17 168
10.10.2016 McDude2013 2 149 55.16% 38 921
10.10.2016 ADP10 2 011 54.96% 31 826
09.10.2016 MayTheHEATbeWithYou 1 843 54.5% 15 489
09.10.2016 The_Motans 1 764 51.95% 45 024
09.10.2016 david_oops 2 015 54.51% 22 717
09.10.2016 Last_Desire 2 628 57.08% 10 791
09.10.2016 thesorin 1 807 53.94% 13 931
07.10.2016 _DynamicGameplay_ 1 847 54.6% 39 744
07.10.2016 NVB_Sasuke_ 2 101 54.62% 15 376
07.10.2016 Ryuzzaki 1 814 52.49% 42 129
05.10.2016 joleeZD 1 954 54.86% 39 099
05.10.2016 caneT83 1 618 53.02% 49 641
05.10.2016 grafotekaSRB 1 425 50.88% 30 283
04.10.2016 No_Bounce 2 219 55.64% 18 432
02.10.2016 J4Ck__ 3 040 60.4% 16 451
02.10.2016 Chokolatt 2 578 59.34% 9 219
02.10.2016 Imperfection_PL 2 362 56.97% 12 620
01.10.2016 BluePill 2 068 56.95% 32 277
01.10.2016 Bouninou 2 157 55.48% 16 367
30.09.2016 RageBro_Ivanic94 1 848 54.95% 20 579
30.09.2016 LaGger_SRB 2 003 57.17% 22 841
30.09.2016 Push_My_Car 2 058 53.69% 53 039
30.09.2016 kenoza 2 062 55.37% 5 433
30.09.2016 ggijaa 2 140 55.69% 15 667
30.09.2016 Mrtvac1_1 1 761 56.3% 12 798
29.09.2016 LaGger_SRB 2 003 57.17% 22 841
28.09.2016 puzzlebreaker 1 954 53.82% 18 390
28.09.2016 Imp87 1 972 56.38% 30 445
24.09.2016 Waemoth 2 187 55.59% 25 356
22.09.2016 Nishizumi_Kojiro 1 957 54.81% 13 296
22.09.2016 QWYX_is_CHEEKIBREEKI_man 1 773 55.47% 57 055
22.09.2016 PardubicakCze 2 037 56.52% 31 159
22.09.2016 lav61 2 193 56.99% 6 454
22.09.2016 RNG_by_HEAT 2 227 57.62% 11 650
21.09.2016 MalaSova 1 903 54.89% 34 492
20.09.2016 Rakumi 2 019 54.14% 14 286
20.09.2016 WeakBlueAnimal 2 168 56.76% 9 577
19.09.2016 Mateocro 1 543 54.89% 23 814
19.09.2016 MrSlatkaSarma 1 583 51.45% 44 950
19.09.2016 Spitz_Kopf_Larry 1 769 54.36% 12 691
19.09.2016 __Just4Pain__ 2 378 56.13% 2 088
19.09.2016 dkriza 1 747 54.09% 19 631
19.09.2016 TomaSmrt 1 632 53.02% 17 670
19.09.2016 peronja 1 821 52.82% 27 454
19.09.2016 sosta 2 095 55.53% 24 461
19.09.2016 ddrazen 1 495 51.78% 33 351
19.09.2016 WarLegend1 1 652 51.22% 79 212
19.09.2016 C_A_L_I_B_R_A 1 967 56.09% 42 964
18.09.2016 Giorgi739 1 968 53.15% 26 258
18.09.2016 BluePill 2 068 56.95% 32 277
18.09.2016 vlade_90 2 374 57.81% 30 921
17.09.2016 carlos_sydney 1 691 53.62% 24 021
16.09.2016 Grub3r 1 900 53.03% 25 314
15.09.2016 Spitz_Kopf_Larry 1 769 54.36% 12 691
15.09.2016 MayTheHEATbeWithYou 1 843 54.5% 15 489
15.09.2016 mix9801 2 050 55.26% 27 583
15.09.2016 Park_Avenue_KNY_AR_432HK 2 434 67.79% 10 502
15.09.2016 Bouninou 2 157 55.48% 16 367
14.09.2016 th3skipper 1 839 53.73% 13 429
14.09.2016 The_Motans 1 764 51.95% 45 024
13.09.2016 Potporucnik 1 874 54.43% 42 005
12.09.2016 IUTIPatriot 1 539 51.43% 25 501
10.09.2016 flashoverride86 1 895 55.9% 14 311
07.09.2016 OMGitsLegeNd 2 292 60.29% 3 747
06.09.2016 Infektid 2 018 55.21% 36 144
06.09.2016 The_Motans 1 764 51.95% 45 024
05.09.2016 Roktaal 1 663 52.44% 30 176
03.09.2016 Mrtvac1_1 1 761 56.3% 12 798
03.09.2016 Iluminati_Overlord 1 769 51.65% 8 012
02.09.2016 CRO_BRIGADA 1 805 59.95% 31 572
02.09.2016 Verrucht 2 484 57.89% 23 184
02.09.2016 Medjed 2 584 58.65% 20 752
01.09.2016 Aragnok 1 986 57.49% 7 097
01.09.2016 CalLightman 2 170 55.42% 7 200
01.09.2016 Warzones08 1 583 51.21% 26 440
30.08.2016 The_Motans 1 764 51.95% 45 024
30.08.2016 MrSlatkaSarma 1 583 51.45% 44 950
30.08.2016 LascO_LegenD 1 779 54.69% 15 973
29.08.2016 Flu_ffy 1 751 55.93% 31 550
29.08.2016 Dado_Ze 1 879 55.88% 66 583
29.08.2016 TheGreatEnemy 1 854 54.65% 25 367
29.08.2016 sapy 1 753 51.36% 16 459
28.08.2016 Park_Avenue_KNY_AR_432HK 2 434 67.79% 10 502
28.08.2016 peronja 1 821 52.82% 27 454
28.08.2016 __Gornik__ 1 597 53.56% 37 006
28.08.2016 TankMann85 2 937 60.7% 4 486
27.08.2016 PljUvAcH 1 867 55.37% 21 752
27.08.2016 lronic 1 896 53.4% 5 880
26.08.2016 Hrabrimalitoster 1 809 52.45% 24 165
26.08.2016 Redelwen 1 894 56.63% 29 105
25.08.2016 MekeszfromKosd 2 186 55.27% 34 819
25.08.2016 ZyiX_x_PWnZ 1 776 53.85% 15 514
23.08.2016 WarLegend1 1 652 51.22% 79 212
23.08.2016 Grub3r 1 900 53.03% 25 314
23.08.2016 ar2di2_75 2 242 55.73% 10 270
23.08.2016 Tiborb84 1 585 53.72% 37 104
23.08.2016 merzii 2 002 55.38% 28 180
22.08.2016 caneT83 1 618 53.02% 49 641
22.08.2016 TankMann85 2 937 60.7% 4 486
21.08.2016 petkonzy 1 625 55.22% 29 317
19.08.2016 __Zyraxes__ 2 116 54.4% 26 411
19.08.2016 cutdarthvader 1 709 54.18% 36 591
17.08.2016 wot_chikor 1 854 52.79% 51 577
17.08.2016 JOK3R_1607 1 547 52.27% 29 126
16.08.2016 flystation 2 804 57.32% 4 021
16.08.2016 Lukast021 1 754 54.19% 37 547
16.08.2016 __Zyraxes__ 2 116 54.4% 26 411
16.08.2016 RageBro_Ivanic94 1 848 54.95% 20 579
16.08.2016 Direfuze 1 828 52% 36 106
16.08.2016 ar2di2_75 2 242 55.73% 10 270
16.08.2016 IUTIPatriot 1 539 51.43% 25 501
16.08.2016 MSUSasuke_U4G 2 713 59.27% 40 056
15.08.2016 MaximusFantasius 1 921 53.53% 22 735
15.08.2016 Imp87 1 972 56.38% 30 445
15.08.2016 SagittariusB2 2 604 58.96% 26 088
15.08.2016 GOGURYEO 1 725 53.97% 38 373
13.08.2016 SquirrelGoesNuts 1 899 54.58% 25 824
12.08.2016 cutdarthvader 1 709 54.18% 36 591
12.08.2016 GreenSIice 4 234 64.21% 4 350
10.08.2016 Mateocro 1 543 54.89% 23 814
10.08.2016 SirTheGozd20 1 825 54.33% 16 926
10.08.2016 iWeasel 2 155 54.75% 20 954
10.08.2016 Vinsanity 1 815 55.44% 24 004
10.08.2016 skumitenkista 1 652 53.15% 18 228
10.08.2016 ernys159 2 066 54.93% 18 075
09.08.2016 LascO_LegenD 1 779 54.69% 15 973
09.08.2016 carlos_sydney 1 691 53.62% 24 021
09.08.2016 Aragnok
from: [N00T] NOOT
1 986 57.49% 7 097
09.08.2016 superiorsrb 1 663 53.18% 15 116
09.08.2016 SquirrelGoesNuts 1 899 54.58% 25 824
09.08.2016 ZyiX_x_PWnZ 1 776 53.85% 15 514
08.08.2016 superkiller33 2 305 57.49% 5 232
08.08.2016 ___PowerSaw___ 2 231 56.4% 17 615
08.08.2016 ___HidDeT___ 2 108 55.49% 11 734
08.08.2016 mihay87 1 498 52.16% 21 500
04.08.2016 Warzones08 1 583 51.21% 26 440
04.08.2016 __Just4Pain__ 2 378 56.13% 2 088
03.08.2016 MSUSasuke_U4G 2 713 59.27% 40 056
01.08.2016 Icebreaker123 1 971 55.07% 20 047
31.07.2016 MooWoolf 1 911 55.01% 20 036
30.07.2016 Redelwen
from: [N00T] NOOT
1 894 56.63% 29 105
30.07.2016 HOT_KEEP_DISTANCE 2 149 56.67% 8 287
30.07.2016 Potporucnik 1 874 54.43% 42 005
29.07.2016 DamageHigh 1 991 56.43% 55 466
28.07.2016 crv00 1 709 53.84% 30 933
28.07.2016 sapy 1 753 51.36% 16 459
28.07.2016 Sgt_Dooom 1 992 57.99% 11 518
28.07.2016 RoIINTroII 2 504 57.49% 12 073
27.07.2016 ___HidDeT___ 2 108 55.49% 11 734
26.07.2016 OMGitsLegeNd 2 292 60.29% 3 747
26.07.2016 Kta_87 1 767 53.43% 19 338
26.07.2016 Maxime981 949 47.56% 20 263
26.07.2016 Kob4tus 1 819 55.52% 6 250
26.07.2016 Sinteus 2 290 55.81% 29 086
25.07.2016 kenoza 2 062 55.37% 5 433
25.07.2016 Maxime981 949 47.56% 20 263
24.07.2016 Sofijanac 2 266 57.69% 37 602
23.07.2016 Iluminati_Overlord 1 769 51.65% 8 012
22.07.2016 AlphaTheIronFate 1 598 53.35% 25 915
22.07.2016 RoIINTroII 2 504 57.49% 12 073
21.07.2016 WA_Mozart 2 941 61.84% 739
20.07.2016 DamageHigh 1 991 56.43% 55 466
19.07.2016 PUNJABI_STYLE 1 960 56.15% 5 955
19.07.2016 tornadoCROgamer 1 661 52.48% 15 144
18.07.2016 GOGURYEO 1 725 53.97% 38 373
18.07.2016 Sofijanac 2 266 57.69% 37 602
17.07.2016 _SOBRANIE_ 2 131 57.1% 8 220
16.07.2016 nemesis_cro 2 143 55.91% 50 422
14.07.2016 Sgt_Dooom 1 992 57.99% 11 518
10.07.2016 senkokiler 2 006 54.95% 17 196
09.07.2016 lronic 1 896 53.4% 5 880
09.07.2016 Commandant_Scylla 2 694 58.19% 10 561
09.07.2016 Sgt_Dooom 1 992 57.99% 11 518
09.07.2016 Tenk34 1 634 57.63% 33 550
09.07.2016 WA_Mozart 2 941 61.84% 739
08.07.2016 ggijaa 2 140 55.69% 15 667
08.07.2016 PMR81 1 657 53.23% 46 411
07.07.2016 Duhach 2 400 57.48% 32 189
07.07.2016 Milaninho 2 415 58.39% 30 265
06.07.2016 pirke077 1 781 52.23% 49 685
05.07.2016 CryTek67 1 972 53.53% 6 636
04.07.2016 Vinsanity 1 815 55.44% 24 004
03.07.2016 Last_Desire 2 628 57.08% 10 791
03.07.2016 fullgore 1 848 57.73% 17 343
02.07.2016 vernl 2 371 59.54% 19 412
01.07.2016 CryTek67
from: [N00T] NOOT
1 972 53.53% 6 636
30.06.2016 _MrLucky_ 1 964 55.59% 2 693
30.06.2016 JonikkaSRB 1 575 53.14% 34 291
29.06.2016 SandzakBull 1 795 53.42% 36 494
28.06.2016 elek 1 871 55.58% 60 592
28.06.2016 grafotekaSRB
from: [MRK] MRK!
1 425 50.88% 30 283
28.06.2016 Direfuze 1 828 52% 36 106
27.06.2016 nemesis_cro 2 143 55.91% 50 422
26.06.2016 merzii 2 002 55.38% 28 180
25.06.2016 Commandant_Scylla 2 694 58.19% 10 561
25.06.2016 KeepCalmAndWatchTheSky 2 824 55.15% 379
24.06.2016 mix9801 2 050 55.26% 27 583
24.06.2016 RNG_by_HEAT 2 227 57.62% 11 650
22.06.2016 Maluqinho_Bestija 2 582 59.23% 6 990
21.06.2016 ernys159 2 066 54.93% 18 075
20.06.2016 flashoverride86 1 895 55.9% 14 311
19.06.2016 Trec3 1 875 55.56% 24 559
19.06.2016 Hrabrimalitoster 1 809 52.45% 24 165
18.06.2016 HOT_KEEP_DISTANCE 2 149 56.67% 8 287
18.06.2016 david29111970 1 586 52.46% 55 298
18.06.2016 SandzakBull 1 795 53.42% 36 494
17.06.2016 mrtvimarijan 1 757 54.97% 32 082
17.06.2016 Roktaal 1 663 52.44% 30 176
17.06.2016 EnderZ420 2 165 56.97% 6 182
16.06.2016 Maluqinho_Bestija 2 582 59.23% 6 990
16.06.2016 Zeko_Ministar_1 2 041 56.57% 5 171
14.06.2016 elek 1 871 55.58% 60 592
13.06.2016 vernl 2 371 59.54% 19 412
13.06.2016 madmaxx13 2 530 58% 9 317
13.06.2016 Commander_BorderLine 2 204 55.25% 19 036
13.06.2016 German223 1 713 53.21% 19 880
13.06.2016 kabines96 2 261 56.46% 10 580
13.06.2016 Noone90 2 050 56.15% 24 321
13.06.2016 HOT_KEEP_DISTANCE 2 149 56.67% 8 287
12.06.2016 Stronku_Boy 1 769 52.17% 14 812
11.06.2016 Bjelosevic 1 819 53.59% 23 154
11.06.2016 KeepCalmAndWatchTheSky 2 824 55.15% 379
11.06.2016 cuban_man 2 650 57.17% 6 091
10.06.2016 EnderZ420 2 165 56.97% 6 182
09.06.2016 tenkistaNo1 1 785 53.28% 42 407
09.06.2016 __Ovidiu__ 2 099 54.31% 5 205
08.06.2016 __Ovidiu__ 2 099 54.31% 5 205
08.06.2016 WeakBlueAnimal 2 168 56.76% 9 577
06.06.2016 mitar85 1 839 53.91% 37 981
05.06.2016 _HateFul_ 2 094 54.54% 25 942
05.06.2016 Fukljo 1 990 54.95% 23 410
04.06.2016 ___PowerSaw___ 2 231 56.4% 17 615
04.06.2016 MartinNS 1 804 53.57% 83 890
02.06.2016 __icy__ 2 172 56.5% 35 633
01.06.2016 GreenSIice 4 234 64.21% 4 350
01.06.2016 Borat1924__ 1 965 53.95% 54 456
31.05.2016 Cero_ 2 069 56.34% 3 099
31.05.2016 Seargent1 2 271 57.17% 26 015
31.05.2016 rakenzy 2 294 59.44% 26 432
31.05.2016 DugiM 1 676 56.81% 20 961
31.05.2016 pepac 1 716 54.53% 33 963
31.05.2016 Clax 1 563 58.08% 20 688
31.05.2016 damircbr 1 457 50.99% 24 923
29.05.2016 __GeOne__ 1 662 52.64% 41 651
29.05.2016 fullgore 1 848 57.73% 17 343
29.05.2016 P_A_L_A_D_I_N_E 2 561 59.65% 7 214
29.05.2016 Hellsing_1 1 846 53.93% 14 423
29.05.2016 dog6 1 798 55.15% 20 266
28.05.2016 TECHXPOSE 1 592 52.54% 26 191
28.05.2016 German223 1 713 53.21% 19 880
28.05.2016 Stronku_Boy 1 769 52.17% 14 812
28.05.2016 Trec3 1 875 55.56% 24 559
28.05.2016 __icy__ 2 172 56.5% 35 633
25.05.2016 _MrLucky_ 1 964 55.59% 2 693
25.05.2016 Tenk34 1 634 57.63% 33 550
24.05.2016 Sgt_Dooom 1 992 57.99% 11 518
23.05.2016 Duhach 2 400 57.48% 32 189
23.05.2016 Milaninho 2 415 58.39% 30 265
23.05.2016 xMikyx 1 677 53.46% 34 937
23.05.2016 Smartformer 2 958 59.66% 11 166
21.05.2016 speede11 1 531 52.55% 16 829
19.05.2016 Forza_Master 2 197 58.01% 6 721
18.05.2016 P_A_L_A_D_I_N_E 2 561 59.65% 7 214
18.05.2016 TukyGaming_xD 2 084 55.28% 29 441
16.05.2016 TukyGaming_xD 2 084 55.28% 29 441
15.05.2016 ADP10 2 011 54.96% 31 826
14.05.2016 katalingo 1 683 52.92% 44 271
13.05.2016 Stronk_Camper 3 117 62.5% 4 317
13.05.2016 TheStroy 1 905 54.97% 22 054
12.05.2016 ExtremeUnicornWarfare 1 771 52.84% 26 798
11.05.2016 bosanskamikaza 1 744 54.03% 28 126
10.05.2016 bosanskamikaza 1 744 54.03% 28 126
10.05.2016 Son_Of_Majstora 2 375 57.8% 5 471
09.05.2016 Cero_ 2 069 56.34% 3 099
08.05.2016 Forza_Master 2 197 58.01% 6 721
07.05.2016 darkospijunovic 1 694 53.77% 27 104
07.05.2016 Fukljo 1 990 54.95% 23 410
06.05.2016 samer3aeu2 1 516 52.85% 27 495
05.05.2016 masssive 2 354 57.22% 64 078
05.05.2016 kabines96 2 261 56.46% 10 580
04.05.2016 NeoNet 2 605 62.33% 32 886
03.05.2016 mastercome91 1 793 53.31% 21 719
03.05.2016 filip222sb 1 919 54.27% 35 252
03.05.2016 _TR_8R 1 942 54.22% 25 963
03.05.2016 lovrima 1 635 53.22% 25 852
02.05.2016 alergo11 1 826 54.06% 19 950
02.05.2016 Brrabus 2 139 54.78% 34 269
02.05.2016 masssive 2 354 57.22% 64 078
02.05.2016 zeko_tz 1 784 55.52% 15 458
01.05.2016 LaGger_SRB 2 003 57.17% 22 841
30.04.2016 VonGoofy 1 925 55.5% 32 862
30.04.2016 Sandz0 2 177 54.48% 38 905
30.04.2016 axlegend1 1 831 53.18% 22 524
30.04.2016 alergo11 1 826 54.06% 19 950
30.04.2016 Luc1fer86 1 819 54.28% 11 293
30.04.2016 brkan 1 447 50.29% 56 883
30.04.2016 Dreamlord 1 251 54.85% 17 546
30.04.2016 mulithekid 1 404 50.37% 66 340
30.04.2016 henrymaster 1 764 52.61% 19 213
30.04.2016 Aleksandargreat 1 625 52.36% 22 175
29.04.2016 Commander_BorderLine 2 204 55.25% 19 036
28.04.2016 _TheSpirit_ 1 642 52.89% 12 601
28.04.2016 RickyTheRedDog 1 605 53.75% 7 393
28.04.2016 Sebedie 1 836 56.07% 42 328
28.04.2016 DarthCharius 1 837 54.11% 42 719
28.04.2016 Kreshow 2 296 56.61% 35 746
27.04.2016 VonGoofy 1 925 55.5% 32 862
25.04.2016 Stronk_Camper 3 117 62.5% 4 317
22.04.2016 dpecko 1 679 53.06% 21 830
22.04.2016 Sadeghmxx 1 909 54.82% 26 613
21.04.2016 Mis_Mekinjas 2 215 55.69% 1 178
21.04.2016 Phantoml0rd 1 623 51.8% 14 670
20.04.2016 Smartformer 2 958 59.66% 11 166
20.04.2016 dpecko 1 679 53.06% 21 830
19.04.2016 david_oops 2 015 54.51% 22 717
18.04.2016 RageBro_Ivanic94 1 848 54.95% 20 579
18.04.2016 speede11 1 531 52.55% 16 829
17.04.2016 NeoNet 2 605 62.33% 32 886
17.04.2016 Kreshow 2 296 56.61% 35 746
17.04.2016 Sebedie 1 836 56.07% 42 328
16.04.2016 madmaxx13 2 530 58% 9 317
16.04.2016 1MaTrIxx1 2 135 55.11% 22 378
16.04.2016 __KeNiJ__ 1 857 55.78% 14 164
14.04.2016 Seargent1 2 271 57.17% 26 015
14.04.2016 iDayne 2 591 58.5% 11 369
14.04.2016 robalPL47 1 543 53.06% 25 982
14.04.2016 mirnestz 1 645 53.6% 27 764
14.04.2016 HOT_KEEP_DISTANCE 2 149 56.67% 8 287
13.04.2016 PUNJABI_STYLE 1 960 56.15% 5 955
13.04.2016 cuban_man
from: [CTRL-] CTRL
2 650 57.17% 6 091
13.04.2016 Smartformer 2 958 59.66% 11 166
12.04.2016 tornadoCROgamer 1 661 52.48% 15 144
12.04.2016 Lukast021 1 754 54.19% 37 547
12.04.2016 Hellsing_1 1 846 53.93% 14 423
12.04.2016 Sadeghmxx 1 909 54.82% 26 613
12.04.2016 Desecrated 2 214 57.89% 15 603
10.04.2016 Desecrated 2 214 57.89% 15 603
10.04.2016 JopaPL 1 782 54.4% 2 046
10.04.2016 _NoM_Dule_Kenjara 2 856 60.1% 6 361
09.04.2016 axlegend1 1 831 53.18% 22 524
09.04.2016 ZvoneST 2 004 54.9% 14 866
06.04.2016 Bouninou 2 157 55.48% 16 367
05.04.2016 Bouninou 2 157 55.48% 16 367
04.04.2016 Xboot 2 026 58.55% 8 280
04.04.2016 mata190 1 724 54.11% 24 025
04.04.2016 BKatt 2 483 56.52% 22 203
03.04.2016 Smartformer 2 958 59.66% 11 166
03.04.2016 Clax 1 563 58.08% 20 688
03.04.2016 Son_Of_Majstora 2 375 57.8% 5 471
03.04.2016 TimPaCt_The_Deadly 2 053 56.1% 8 531
02.04.2016 SandzakBull 1 795 53.42% 36 494
02.04.2016 __KeNiJ__ 1 857 55.78% 14 164
02.04.2016 BKatt 2 483 56.52% 22 203
31.03.2016 Xboot 2 026 58.55% 8 280
31.03.2016 zeko_tz 1 784 55.52% 15 458
30.03.2016 Ender__wiggins 1 408 56.17% 17 681
29.03.2016 TimPaCt_The_Deadly 2 053 56.1% 8 531
28.03.2016 david29111970 1 586 52.46% 55 298
28.03.2016 TomaSmrt 1 632 53.02% 17 670
27.03.2016 martinkrisztian 1 971 55.24% 20 349
27.03.2016 OMGitsLegeNd 2 292 60.29% 3 747
27.03.2016 TheotY 1 590 52.65% 19 359
27.03.2016 SkanySativa_CRO 2 087 55.45% 29 721
27.03.2016 cokizg 1 447 51.39% 27 063
27.03.2016 3mixx3 1 609 52.58% 5 848
27.03.2016 BoletopCRO 2 620 58.67% 2 105
27.03.2016 KoTeHoK_KLi4KE_GaV 1 986 57.34% 7 748
27.03.2016 iDayne 2 591 58.5% 11 369
27.03.2016 _NoM_Dule_Kenjara 2 856 60.1% 6 361
27.03.2016 TheotY 1 590 52.65% 19 359
26.03.2016 91destroyer 1 632 52.24% 23 892
26.03.2016 Nelos 1 640 52.49% 36 644
26.03.2016 KARGADAN 1 238 50.63% 19 482
26.03.2016 KARGADAN 1 238 50.63% 19 482
26.03.2016 Hvarska_Zvir 1 540 50.33% 39 882
24.03.2016 Ender__wiggins 1 408 56.17% 17 681
24.03.2016 Superbaka 1 485 52.71% 25 237
24.03.2016 DenisTuzla 1 781 56.43% 1 299
24.03.2016 herose9 2 058 54.81% 23 233
24.03.2016 nom__nom 1 592 53.53% 21 269
23.03.2016 mirnestz 1 645 53.6% 27 764
23.03.2016 Kta_87 1 767 53.43% 19 338
21.03.2016 MooWoolf 1 911 55.01% 20 036
21.03.2016 senkokiler 2 006 54.95% 17 196
21.03.2016 diskonindja 1 705 51.84% 66 850
21.03.2016 lovrima 1 635 53.22% 25 852
21.03.2016 RAMBO_RO 1 728 54.52% 26 477
20.03.2016 mata190 1 724 54.11% 24 025
20.03.2016 samer3aeu2 1 516 52.85% 27 495
20.03.2016 ljubosek007 1 319 50.17% 29 816
20.03.2016 bubasvaba1982 1 628 51.26% 33 856
20.03.2016 Gotorak 1 437 51.47% 22 521
19.03.2016 rakenzy 2 294 59.44% 26 432
19.03.2016 Ceda_Kralj 1 927 56.18% 19 990
18.03.2016 Tschechich 2 152 56.35% 18 124
16.03.2016 diskonindja 1 705 51.84% 66 850
15.03.2016 1MaTrIxx1 2 135 55.11% 22 378
15.03.2016 Carnator 1 511 53.09% 19 649
15.03.2016 Trollollillo 1 735 53.86% 25 928
14.03.2016 x_Dimitris_x 1 816 56.69% 5 407
13.03.2016 Borat1924__ 1 965 53.95% 54 456
13.03.2016 RAMBO_RO 1 728 54.52% 26 477
12.03.2016 saibotSWE 1 875 53.63% 46 288
12.03.2016 herose9 2 058 54.81% 23 233
12.03.2016 KoTeHoK_KLi4KE_GaV 1 986 57.34% 7 748
11.03.2016 _TheSpirit_ 1 642 52.89% 12 601
11.03.2016 Aleksandargreat 1 625 52.36% 22 175
11.03.2016 Sandz0 2 177 54.48% 38 905
10.03.2016 xxX_MLG_Banana_Xxx 4 313 65.25% 4 486
10.03.2016 CongTong 1 603 52.66% 25 636
10.03.2016 Buz3r 1 284 49.88% 31 667
09.03.2016 Fanatik75 1 556 52.62% 23 459
06.03.2016 _Anti__Noob_ 2 195 56.64% 9 469
06.03.2016 270_Winchester 1 878 53.51% 21 096
05.03.2016 Buz3r 1 284 49.88% 31 667
04.03.2016 Trollollillo 1 735 53.86% 25 928
04.03.2016 neural86 1 894 55.57% 33 711
04.03.2016 MalySmokot 1 526 53.18% 22 670
04.03.2016 leeman3 1 631 53.32% 8 624
04.03.2016 Banokles 1 834 54.5% 56 644
03.03.2016 _zipfeeL 1 606 52.88% 36 870
03.03.2016 _Dyler_ 1 828 55.29% 50 516
02.03.2016 skumitenkista 1 652 53.15% 18 228
01.03.2016 ___Grunf___ 1 952 54.42% 51 681
29.02.2016 Pisko_ 1 689 53.05% 25 843
29.02.2016 henrymaster 1 764 52.61% 19 213
29.02.2016 Mr_Bombastikk 1 671 55.42% 37 575
29.02.2016 saibotSWE
from: [USSR] USSR
1 875 53.63% 46 288
28.02.2016 sop_senior 1 375 52.97% 25 274
28.02.2016 iWeasel 2 155 54.75% 20 954
28.02.2016 Mis_Mekinjas 2 215 55.69% 1 178
27.02.2016 MisterArell 2 068 54.3% 31 023
27.02.2016 d_O_O_b 2 244 57.08% 685
27.02.2016 MonsterMilkman 1 716 54.99% 36 931
25.02.2016 gogutza 1 940 53.89% 26 560
25.02.2016 sorrow43 1 733 52.5% 26 634
25.02.2016 Ilija_Cvorovic 1 455 50.87% 47 535
24.02.2016 neural86 1 894 55.57% 33 711
24.02.2016 MisterArell 2 068 54.3% 31 023
21.02.2016 SkanySativa_CRO 2 087 55.45% 29 721
21.02.2016 iDayne 2 591 58.5% 11 369
20.02.2016 sorrow43 1 733 52.5% 26 634
20.02.2016 Sinteus 2 290 55.81% 29 086
20.02.2016 tor007 1 638 53.89% 55 479
20.02.2016 lorthiras 1 555 51.28% 26 783
20.02.2016 _BigFugo_ 1 707 51.86% 18 023
20.02.2016 Mrtvac1_1 1 761 56.3% 12 798
19.02.2016 iDayne 2 591 58.5% 11 369
18.02.2016 _BigFugo_ 1 707 51.86% 18 023
18.02.2016 RickyTheRedDog 1 605 53.75% 7 393
18.02.2016 nom__nom 1 592 53.53% 21 269
18.02.2016 sale6263 1 560 51.62% 24 569
17.02.2016 DarthCharius 1 837 54.11% 42 719
16.02.2016 gogutza 1 940 53.89% 26 560
16.02.2016 Stark000 1 609 51.89% 24 102
15.02.2016 sale6263 1 560 51.62% 24 569
14.02.2016 _JuDaS_WhO_SoLd_JeSuS_ 1 377 50.95% 24 743
12.02.2016 Ticallion36 1 770 54.44% 44 914
12.02.2016 GILE77 1 639 53.14% 37 280
11.02.2016 Hvarska_Zvir 1 540 50.33% 39 882
09.02.2016 mihay87 1 498 52.16% 21 500
07.02.2016 nlkk 2 233 55.56% 360
07.02.2016 WuTanker 2 070 57.62% 18 600
06.02.2016 Fury_GX 2 638 57.15% 4 532
06.02.2016 paparazzov77 1 735 52.57% 25 690
05.02.2016 mastercome91 1 793 53.31% 21 719
04.02.2016 Mr_Bombastikk 1 671 55.42% 37 575
04.02.2016 PozzMan 2 135 57.11% 18 544
03.02.2016 IcoH 2 097 54.37% 23 751
03.02.2016 HEMAVO2 2 055 55.35% 25 364
03.02.2016 bRavac 2 094 58.42% 6 446
03.02.2016 DenisTuzla 1 781 56.43% 1 299
03.02.2016 stormlaur 1 398 51.47% 43 083
02.02.2016 Desecrated
from: [IMX] I'm X
2 214 57.89% 15 603
02.02.2016 Velloxx 1 777 55.23% 10 627
02.02.2016 burhanpashatr 1 807 53.35% 17 080
02.02.2016 cocojumbo_2015 2 445 55.92% 8 187
02.02.2016 Karma_to_Burn 1 822 54.18% 37 845
02.02.2016 DeerHunter93 1 700 53.28% 22 870
02.02.2016 nikolap84 1 867 53.99% 26 873
01.02.2016 nlkk 2 233 55.56% 360
01.02.2016 fillax 1 681 52.46% 32 794
01.02.2016 nemom93 1 841 53.63% 26 604
01.02.2016 TheotY 1 590 52.65% 19 359
01.02.2016 joogeee 1 382 53.27% 14 521
01.02.2016 gillee 1 728 52.63% 21 937
01.02.2016 ghidi 1 449 51.2% 17 604
01.02.2016 IcoH 2 097 54.37% 23 751
01.02.2016 bRavac 2 094 58.42% 6 446
01.02.2016 Adrijano09 1 543 50.25% 23 140
31.01.2016 Phantoml0rd 1 623 51.8% 14 670
30.01.2016 Ceda_Kralj 1 927 56.18% 19 990
30.01.2016 Sandokan_cro 2 035 56.39% 25 093
30.01.2016 Fury_GX 2 638 57.15% 4 532
28.01.2016 GOX_Haubica 1 348 52.23% 38 831
27.01.2016 Banokles 1 834 54.5% 56 644
27.01.2016 Discomaster 1 999 55.59% 1 153
27.01.2016 XerBlO 1 839 53.37% 13 386
26.01.2016 tor007 1 638 53.89% 55 479
26.01.2016 cocojumbo_2015 2 445 55.92% 8 187
25.01.2016 tenkistaNo1 1 785 53.28% 42 407
25.01.2016 OMGitsLegeNd 2 292 60.29% 3 747
25.01.2016 CRO_SPANA 1 900 55.54% 19 073
25.01.2016 filip222sb 1 919 54.27% 35 252
25.01.2016 damircbr 1 457 50.99% 24 923
24.01.2016 martinkrisztian 1 971 55.24% 20 349
24.01.2016 _FUHR3R 2 642 59.29% 9 246
24.01.2016 PMR81 1 657 53.23% 46 411
22.01.2016 Kob4tus 1 819 55.52% 6 250
22.01.2016 sop_senior 1 375 52.97% 25 274
21.01.2016 Warrior_1389 1 596 53.75% 3 278
21.01.2016 crvic 1 692 52.85% 30 553
20.01.2016 Carnator 1 511 53.09% 19 649
20.01.2016 Stark000 1 609 51.89% 24 102
20.01.2016 petarpetric3 1 801 53.25% 35 705
19.01.2016 nikolap84 1 867 53.99% 26 873
18.01.2016 korniszon_ 1 642 54.5% 10 953
18.01.2016 brkan 1 447 50.29% 56 883
18.01.2016 petarpetric3 1 801 53.25% 35 705
18.01.2016 Sandokan_cro 2 035 56.39% 25 093
17.01.2016 crv00 1 709 53.84% 30 933
17.01.2016 cokizg 1 447 51.39% 27 063
16.01.2016 mulithekid 1 404 50.37% 66 340
15.01.2016 _Gandalf_ThE_Gray_ 1 593 53.04% 23 901
15.01.2016 Velloxx 1 777 55.23% 10 627
15.01.2016 PCkanuista 2 078 55.29% 10 815
14.01.2016 ___Grunf___ 1 952 54.42% 51 681
13.01.2016 3mixx3 1 609 52.58% 5 848
13.01.2016 ionicafardefric 1 864 53.99% 41 930
13.01.2016 Superbaka 1 485 52.71% 25 237
13.01.2016 HEMAVO2 2 055 55.35% 25 364
12.01.2016 DoomBringer_BG 1 914 54.61% 41 166
12.01.2016 lovrima 1 635 53.22% 25 852
11.01.2016 DeerHunter93 1 700 53.28% 22 870
11.01.2016 DarthCharius 1 837 54.11% 42 719
11.01.2016 Kob4tus 1 819 55.52% 6 250
10.01.2016 _Kylo__Ren_ 2 642 60.08% 3 329
10.01.2016 _Herr_John_R_ 1 952 54.62% 34 885
10.01.2016 DoctorDeath_The_ANIMAL 2 036 55.19% 30 779
10.01.2016 Random_invader 1 651 54.57% 2 113
08.01.2016 Leona4com 1 853 53.38% 10 052
07.01.2016 leeman3 1 631 53.32% 8 624
07.01.2016 s3tof 1 878 53.56% 26 451
06.01.2016 ZdravkoColic 1 846 55.16% 22 346
05.01.2016 TheGreatEnemy 1 854 54.65% 25 367
04.01.2016 DoomBringer_BG 1 914 54.61% 41 166
03.01.2016 Leona4com 1 853 53.38% 10 052
03.01.2016 CongTong 1 603 52.66% 25 636
03.01.2016 _Zlatny_Ljiljan_ 2 030 55.78% 23 864
03.01.2016 21black21 2 298 55.23% 22 839
02.01.2016 alergo11 1 826 54.06% 19 950
01.01.2016 d_O_O_b 2 244 57.08% 685
01.01.2016 MonsterMilkman 1 716 54.99% 36 931
31.12.2015 _FUHR3R 2 642 59.29% 9 246
31.12.2015 Tona_ 1 725 53.16% 27 329
30.12.2015 _Anti__Noob_ 2 195 56.64% 9 469
30.12.2015 Xanza05 1 815 54.31% 29 430
30.12.2015 _Zlatny_Ljiljan_ 2 030 55.78% 23 864
30.12.2015 lovrima 1 635 53.22% 25 852
29.12.2015 korniszon_ 1 642 54.5% 10 953
29.12.2015 shunqino 1 250 50.86% 46 204
28.12.2015 21black21 2 298 55.23% 22 839
28.12.2015 ___PowerSaw___ 2 231 56.4% 17 615
28.12.2015 Sveta7 1 638 53.68% 11 091
28.12.2015 sale6263 1 560 51.62% 24 569
28.12.2015 _FlyingPineapple_ 1 865 56.89% 4 004
28.12.2015 ludivepar 1 312 52.26% 35 625
28.12.2015 mani_the_blyatoris 2 275 60.27% 8 240
28.12.2015 warlions 1 303 50.65% 27 196
28.12.2015 kirovista 1 394 51.4% 12 402
28.12.2015 djemekk 1 709 52.64% 45 693
28.12.2015 KapetanComas 1 564 54.38% 32 622
28.12.2015 Hvarska_Zvir 1 540 50.33% 39 882
28.12.2015 Tschechich 2 152 56.35% 18 124
28.12.2015 Pavlov91 1 676 53.23% 28 755
27.12.2015 miranslo 1 633 52.71% 44 456
26.12.2015 Random_invader 1 651 54.57% 2 113
26.12.2015 worldoftanks93_2015 2 238 57.67% 860
24.12.2015 AlphaTheIronFate 1 598 53.35% 25 915
23.12.2015 mani_the_blyatoris 2 275 60.27% 8 240
23.12.2015 pikypoky 1 484 52.5% 44 546
22.12.2015 _Gandalf_ThE_Gray_ 1 593 53.04% 23 901
22.12.2015 XerBlO 1 839 53.37% 13 386
21.12.2015 dkriza 1 747 54.09% 19 631
21.12.2015 Karma_to_Burn 1 822 54.18% 37 845
21.12.2015 XUnicumX 1 543 56.3% 56 523
20.12.2015 mani_the_blyatoris 2 275 60.27% 8 240
20.12.2015 Jesus610 1 340 50.48% 20 793
19.12.2015 _Gandalf_ThE_Gray_ 1 593 53.04% 23 901
18.12.2015 _Dyler_ 1 828 55.29% 50 516
16.12.2015 miranslo 1 633 52.71% 44 456
16.12.2015 worldoftanks93_2015 2 238 57.67% 860
14.12.2015 s3tof 1 878 53.56% 26 451
13.12.2015 goranoo 2 122 56.14% 27 763
13.12.2015 _Lamb_of_god_ 1 740 54.02% 8 963
12.12.2015 grikopacquiao 2 026 54.49% 29 937
11.12.2015 Adversary_ 2 147 56.06% 26 394
10.12.2015 kico987 2 372 59.42% 22 709
09.12.2015 ZoranSRB1985 1 335 49.94% 27 723
09.12.2015 x_Dimitris_x 1 816 56.69% 5 407
08.12.2015 MrBule 2 506 58.34% 7 151
08.12.2015 La_Pesta 2 098 56.94% 41 296
08.12.2015 GNENAD 1 635 52.04% 37 493
07.12.2015 Sveta7 1 638 53.68% 11 091
05.12.2015 Seksi_Gnjurac 2 134 57.39% 21 078
04.12.2015 1337Jocker 2 076 55.68% 21 730
04.12.2015 mrtavac 1 627 52.9% 54 270
02.12.2015 mayer_92 1 643 54% 36 403
01.12.2015 Noone90 2 050 56.15% 24 321
01.12.2015 Outclassed_xD 2 425 58.16% 51 538
30.11.2015 burhanpashatr 1 807 53.35% 17 080
30.11.2015 CRO_TIGER_DUX 1 729 54.12% 45 901
29.11.2015 MrBule 2 506 58.34% 7 151
29.11.2015 ThehandofGod1 2 240 60.1% 2 742
29.11.2015 drColumbusOkrutni 1 946 54.47% 41 285
28.11.2015 Arsenalist90 1 951 55.14% 29 569
28.11.2015 BoletopCRO 2 620 58.67% 2 105
28.11.2015 _Avrelio_ 1 838 53.15% 8 250
26.11.2015 DUCA_ 2 042 57.84% 20 318
25.11.2015 Arsenalist90 1 951 55.14% 29 569
25.11.2015 Leona4com 1 853 53.38% 10 052
25.11.2015 Giorgi739 1 968 53.15% 26 258
25.11.2015 goranoo 2 122 56.14% 27 763
24.11.2015 komaracIVC 1 655 52.19% 22 286
23.11.2015 _Lamb_of_god_ 1 740 54.02% 8 963
23.11.2015 Warrior_1389 1 596 53.75% 3 278
22.11.2015 another_acc 2 190 56.48% 9 309
22.11.2015 IISasorII 1 534 51.45% 21 488
22.11.2015 __SPRAJA__ 1 580 52.26% 52 141
22.11.2015 MalySmokot 1 526 53.18% 22 670
22.11.2015 mrtavac 1 627 52.9% 54 270
21.11.2015 1337Jocker 2 076 55.68% 21 730
21.11.2015 Seksi_Gnjurac 2 134 57.39% 21 078
21.11.2015 Scrop 1 643 51.93% 14 614
21.11.2015 tigar007 1 856 51.96% 27 571
21.11.2015 Warous 1 377 50.12% 18 216
20.11.2015 La_Pesta 2 098 56.94% 41 296
20.11.2015 Adversary_ 2 147 56.06% 26 394
20.11.2015 Groff 1 702 54.99% 45 281
19.11.2015 St4r_L1ke 2 956 61.4% 11 333
19.11.2015 ___PowerSaw___ 2 231 56.4% 17 615
19.11.2015 Groff 1 702 54.99% 45 281
18.11.2015 mani_the_blyatoris 2 275 60.27% 8 240
18.11.2015 _Herr_John_R_ 1 952 54.62% 34 885
17.11.2015 _Gandalf_ThE_Gray_ 1 593 53.04% 23 901
17.11.2015 Krakinjo 1 552 52.99% 25 594
15.11.2015 _JuDaS_WhO_SoLd_JeSuS_ 1 377 50.95% 24 743
14.11.2015 Luc1fer86 1 819 54.28% 11 293
14.11.2015 AlphaTheIronFate 1 598 53.35% 25 915
13.11.2015 D3adm3n 2 258 56.7% 15 552
13.11.2015 JOK3R_1607 1 547 52.27% 29 126
13.11.2015 paparazzov77 1 735 52.57% 25 690
12.11.2015 nic1989 2 453 56.59% 26 991
12.11.2015 djemekk 1 709 52.64% 45 693
12.11.2015 lorddjinns 1 859 53.62% 34 947
12.11.2015 XxJinsxX 1 437 49.73% 38 322
11.11.2015 CRO_TIGER_DUX 1 729 54.12% 45 901
11.11.2015 MareMatrix 2 290 55.73% 10 209
10.11.2015 _FlyingPineapple_ 1 865 56.89% 4 004
09.11.2015 Lanser6 1 751 54.77% 39 256
09.11.2015 GespensterJaeger 1 527 52.98% 36 473
09.11.2015 Jesus610 1 340 50.48% 20 793
09.11.2015 mortener 1 375 52.31% 19 718
09.11.2015 GNENAD 1 635 52.04% 37 493
09.11.2015 Vortex_AZE 2 317 59.92% 1 582
07.11.2015 Vortex_AZE 2 317 59.92% 1 582
06.11.2015 mortener 1 375 52.31% 19 718
06.11.2015 pepac 1 716 54.53% 33 963
05.11.2015 Desecrated 2 214 57.89% 15 603
05.11.2015 henrymaster 1 764 52.61% 19 213
05.11.2015 _TheJoker 2 289 57.33% 17 105
05.11.2015 SaMo_NaCl 1 652 52.68% 22 745
05.11.2015 lewylewy 1 637 53.94% 28 120
05.11.2015 MrBiceps93 1 764 53.56% 16 551
05.11.2015 viermicica 1 816 54.69% 45 183
04.11.2015 Discomaster 1 999 55.59% 1 153
04.11.2015 St4r_L1ke 2 956 61.4% 11 333
04.11.2015 bubasvaba1982 1 628 51.26% 33 856
04.11.2015 Topn 1 975 52.78% 39 321
02.11.2015 celepharn 2 169 58.76% 49 483
02.11.2015 PauliCro 2 548 58.44% 13 772
02.11.2015 Blesavko 2 179 57.35% 29 282
01.11.2015 KapetanComas 1 564 54.38% 32 622
01.11.2015 kakozasto 2 340 56.96% 26 684
31.10.2015 NersOne 2 516 56.51% 11 825
30.10.2015 _Kylo__Ren_ 2 642 60.08% 3 329
30.10.2015 stormlaur 1 398 51.47% 43 083
29.10.2015 _SN0B_ 2 401 60.73% 927
29.10.2015 Matek67 1 746 54.33% 17 932
29.10.2015 vulcandabo 2 016 54.19% 25 308
29.10.2015 Argus83 1 604 52.32% 30 002
29.10.2015 Ticallion36 1 770 54.44% 44 914
29.10.2015 kirovista 1 394 51.4% 12 402
29.10.2015 Outclassed_xD 2 425 58.16% 51 538
28.10.2015 WuTanker 2 070 57.62% 18 600
28.10.2015 ZdravkoColic 1 846 55.16% 22 346
28.10.2015 Warous 1 377 50.12% 18 216
27.10.2015 BurcEdinburgh 1 170 50.05% 21 962
26.10.2015 lorddjinns 1 859 53.62% 34 947
26.10.2015 XxJinsxX 1 437 49.73% 38 322
25.10.2015 Krakinjo 1 552 52.99% 25 594
23.10.2015 sorrow43 1 733 52.5% 26 634
22.10.2015 Warrez_SRB 1 620 52.29% 14 644
21.10.2015 sorrow43 1 733 52.5% 26 634
21.10.2015 joks256 1 781 55.62% 22 680
20.10.2015 david991ge 2 203 55.25% 38 650
18.10.2015 _SORENA_ 1 490 52.65% 3 248
18.10.2015 Ali_Punisherr 1 313 49.77% 32 021
17.10.2015 Fanatik75 1 556 52.62% 23 459
15.10.2015 Argus83 1 604 52.32% 30 002
13.10.2015 SO4P_M4CT4V1SH 1 735 52.65% 12 168
13.10.2015 Gotorak 1 437 51.47% 22 521
13.10.2015 CroDemon 2 413 61.27% 3 783
12.10.2015 djura29 1 813 53.51% 33 529
12.10.2015 _SORENA_ 1 490 52.65% 3 248
11.10.2015 Kyve 1 565 51.46% 25 480
11.10.2015 Repressionone 1 667 53.62% 10 332
11.10.2015 Kiseljak_94 1 671 53.68% 29 654
11.10.2015 Snajper_Saper 1 653 53.24% 37 215
11.10.2015 Superbaka 1 485 52.71% 25 237
09.10.2015 Armmin 1 543 51.51% 39 100
08.10.2015 ThehandofGod1 2 240 60.1% 2 742
08.10.2015 Armmin 1 543 51.51% 39 100
08.10.2015 budihudi_ 1 172 48.7% 27 473
05.10.2015 MareMatrix 2 290 55.73% 10 209
05.10.2015 Guzovski 2 075 55.44% 28 007
04.10.2015 IISasorII 1 534 51.45% 21 488
03.10.2015 budihudi_ 1 172 48.7% 27 473
03.10.2015 celepharn 2 169 58.76% 49 483
03.10.2015 CramikazZze 2 044 54.02% 24 328
01.10.2015 ir_Aria 1 065 48.47% 24 363
01.10.2015 tomica90 1 252 50.06% 12 730
01.10.2015 kozaribok 1 389 51.9% 20 919
01.10.2015 CramikazZze 2 044 54.02% 24 328
01.10.2015 PauliCro 2 548 58.44% 13 772
30.09.2015 Topn 1 975 52.78% 39 321
29.09.2015 CraftyCatcher 1 583 52.25% 37 475
29.09.2015 noboni 2 267 56.76% 35 261
29.09.2015 drColumbusOkrutni 1 946 54.47% 41 285
28.09.2015 Warrez_SRB 1 620 52.29% 14 644
28.09.2015 MalySmokot 1 526 53.18% 22 670
27.09.2015 Rimmer_WarMashinerija 1 744 53.05% 42 325
26.09.2015 Siro111 1 777 54.48% 8 341
25.09.2015 Matek67 1 746 54.33% 17 932
25.09.2015 fesa9169 1 453 52.53% 13 576
25.09.2015 mirza1995 1 700 53.58% 27 884
25.09.2015 henrymaster 1 764 52.61% 19 213
25.09.2015 another_acc 2 190 56.48% 9 309
24.09.2015 IUTIPatriot 1 539 51.43% 25 501
24.09.2015 _Kylo__Ren_ 2 642 60.08% 3 329
23.09.2015 TheotY 1 590 52.65% 19 359
23.09.2015 Adrijano09 1 543 50.25% 23 140
22.09.2015 CongTong 1 603 52.66% 25 636
21.09.2015 Mata_FTW 1 985 55.4% 12 857
21.09.2015 aqvila_ns 1 543 52.2% 27 571
20.09.2015 djura29 1 813 53.51% 33 529
19.09.2015 DUCA_ 2 042 57.84% 20 318
17.09.2015 aqvila_ns 1 543 52.2% 27 571
17.09.2015 _Kylo__Ren_ 2 642 60.08% 3 329
17.09.2015 __SPRAJA__ 1 580 52.26% 52 141
17.09.2015 ThehandofGod1 2 240 60.1% 2 742
17.09.2015 AlphaTheIronFate 1 598 53.35% 25 915
17.09.2015 drColumbusOkrutni 1 946 54.47% 41 285
16.09.2015 grikopacquiao 2 026 54.49% 29 937
16.09.2015 D3adm3n 2 258 56.7% 15 552
16.09.2015 JOK3R_1607 1 547 52.27% 29 126
16.09.2015 dmmusa8 1 077 48.77% 73 834
15.09.2015 KamikazePingvin 3 489 62.5% 25 741
15.09.2015 Maki711 1 904 53.86% 23 399
15.09.2015 dmmusa8 1 077 48.77% 73 834
13.09.2015 sale6263 1 560 51.62% 24 569
13.09.2015 Hvarska_Zvir 1 540 50.33% 39 882
13.09.2015 Mata_FTW 1 985 55.4% 12 857
13.09.2015 pepac 1 716 54.53% 33 963
12.09.2015 XUnicumX 1 543 56.3% 56 523
12.09.2015 Rimmer_WarMashinerija 1 744 53.05% 42 325
12.09.2015 Maluqinho_Bestija 2 582 59.23% 6 990
11.09.2015 mallishishmish 2 181 55.88% 9 422
09.09.2015 Kyve 1 565 51.46% 25 480
09.09.2015 CroSoldier_ZGB 1 621 51.89% 41 363
08.09.2015 bajkic 1 381 53.26% 56 491
08.09.2015 epits1004 1 934 55.72% 23 645
08.09.2015 bosanskamikaza 1 744 54.03% 28 126
08.09.2015 _Avrelio_ 1 838 53.15% 8 250
07.09.2015 MalySmokot 1 526 53.18% 22 670
07.09.2015 Maki711 1 904 53.86% 23 399
07.09.2015 BurcEdinburgh 1 170 50.05% 21 962
07.09.2015 CroSoldier_ZGB 1 621 51.89% 41 363
06.09.2015 Siro111 1 777 54.48% 8 341
05.09.2015 _SORENA_ 1 490 52.65% 3 248
04.09.2015 Scrop 1 643 51.93% 14 614
04.09.2015 ZoranSRB1985 1 335 49.94% 27 723
03.09.2015 _TheJoker 2 289 57.33% 17 105
02.09.2015 mayer_92 1 643 54% 36 403
02.09.2015 robalPL47 1 543 53.06% 25 982
01.09.2015 Ilija_Cvorovic 1 455 50.87% 47 535
01.09.2015 dr_Mckay_Zg 1 922 59.56% 1 580
01.09.2015 jegi_razor 1 321 52.11% 10 925
01.09.2015 jolee81 1 212 49.69% 29 324
01.09.2015 GOLDSUCHT 1 901 66.77% 15 350
01.09.2015 antoniozd 1 229 50.19% 17 826
01.09.2015 gerwoo 1 829 52.64% 29 846
01.09.2015 MrVictorius99 1 718 52.2% 14 424
01.09.2015 Vysixo 1 874 54.82% 8 978
01.09.2015 DenisTuzla 1 781 56.43% 1 299
01.09.2015 Mrljina 1 393 50.39% 20 623
31.08.2015 SO4P_M4CT4V1SH 1 735 52.65% 12 168
30.08.2015 david991ge 2 203 55.25% 38 650
29.08.2015 Leona4com 1 853 53.38% 10 052
29.08.2015 ir_Aria 1 065 48.47% 24 363
28.08.2015 Orryx 1 574 51.92% 19 086
27.08.2015 _SORENA_ 1 490 52.65% 3 248
26.08.2015 Maluqinho_Bestija 2 582 59.23% 6 990
25.08.2015 Ali_Punisherr 1 313 49.77% 32 021
25.08.2015 warlions 1 303 50.65% 27 196
24.08.2015 Bosnian_Destroyer_ 1 302 52.45% 14 652
23.08.2015 CroAce 1 827 53.56% 33 128
22.08.2015 ludimiljac 1 400 51.8% 36 471
21.08.2015 GespensterJaeger 1 527 52.98% 36 473
17.08.2015 ThehandofGod1 2 240 60.1% 2 742
17.08.2015 kikegio 1 403 51.53% 16 175
17.08.2015 piskoonline1969 1 466 52.04% 71 134
17.08.2015 cadyy 1 725 51.56% 35 520
14.08.2015 Mijo_Peh 2 129 56.01% 78 961
11.08.2015 D3adm3n 2 258 56.7% 15 552
11.08.2015 mallishishmish 2 181 55.88% 9 422
11.08.2015 Dominic_Toretto_ 2 080 57.28% 17 637
11.08.2015 Blue_Wizard_ 2 190 58.74% 9 272
11.08.2015 MeltDownLTU 2 099 55.95% 22 372
07.08.2015 69th_Acc 1 784 56% 13 989
06.08.2015 69th_Acc 1 784 56% 13 989
05.08.2015 SaMo_NaCl 1 652 52.68% 22 745
05.08.2015 SkockoCRO 1 612 52.05% 12 460
05.08.2015 GLUTES 2 120 55.22% 28 509
03.08.2015 Blesavko 2 179 57.35% 29 282
02.08.2015 MeltDownLTU 2 099 55.95% 22 372
31.07.2015 cadyy 1 725 51.56% 35 520
31.07.2015 _SORENA_ 1 490 52.65% 3 248
31.07.2015 stalker_stx 2 343 57.34% 34 459
30.07.2015 mirza1995 1 700 53.58% 27 884
29.07.2015 epits1004 1 934 55.72% 23 645
26.07.2015 DrU6Hii 1 406 50.57% 18 408
25.07.2015 Zeko_Ministar_1
from: [EXS] ExileS
2 041 56.57% 5 171
24.07.2015 Iso009 1 598 53.69% 14 661
23.07.2015 Mrtvac1_1 1 761 56.3% 12 798
23.07.2015 DrU6Hii 1 406 50.57% 18 408
22.07.2015 M4sterBates 2 292 57.94% 18 519
22.07.2015 kikegio 1 403 51.53% 16 175
22.07.2015 stalker_stx 2 343 57.34% 34 459
22.07.2015 nemom93 1 841 53.63% 26 604
21.07.2015 Dominic_Toretto_ 2 080 57.28% 17 637
20.07.2015 KamikazePingvin 3 489 62.5% 25 741
20.07.2015 Blue_Wizard_ 2 190 58.74% 9 272
19.07.2015 deep_zek 1 553 51.06% 32 662
17.07.2015 Snajper_Saper 1 653 53.24% 37 215
16.07.2015 Desecrated
from: [-MIA-] MIA
2 214 57.89% 15 603
14.07.2015 LadyDarky 1 426 52.9% 25 448
14.07.2015 bosanskamikaza 1 744 54.03% 28 126
12.07.2015 AlphaTheIronFate 1 598 53.35% 25 915
12.07.2015 Buzuk_ 2 584 58.92% 13 852
12.07.2015 _SORENA_ 1 490 52.65% 3 248
12.07.2015 DarthCharius 1 837 54.11% 42 719
12.07.2015 LadyDarky 1 426 52.9% 25 448
12.07.2015 DoctorDeath_The_ANIMAL 2 036 55.19% 30 779
12.07.2015 Lanser6 1 751 54.77% 39 256
11.07.2015 PCkanuista 2 078 55.29% 10 815
10.07.2015 M4sterBates 2 292 57.94% 18 519
10.07.2015 pikypoky 1 484 52.5% 44 546
10.07.2015 lovrima 1 635 53.22% 25 852
02.07.2015 Aleksandar987 2 308 56.84% 20 981
02.07.2015 djole_123 1 219 51.38% 19 617
02.07.2015 rjanos78 1 106 49.99% 25 093
01.07.2015 rocko73 1 279 51.31% 39 368
01.07.2015 tony23pro 1 584 53.46% 48 916
01.07.2015 JonikkaSRB 1 575 53.14% 34 291
01.07.2015 MartinNS 1 804 53.57% 83 890
01.07.2015 henrymaster 1 764 52.61% 19 213
01.07.2015 Vujko1990 2 171 55.61% 25 986
01.07.2015 Benouf 1 597 53.36% 15 647
01.07.2015 Moriquend 1 883 56.04% 28 580
01.07.2015 W1ckedVarg 2 585 60.15% 906
01.07.2015 ToeCutter_1 1 438 51.15% 23 424
01.07.2015 LooTman 2 153 54.95% 23 880
01.07.2015 __Hades_ 1 638 52.85% 32 451
01.07.2015 kovac983 1 272 49.9% 30 955
01.07.2015 Predatopreda 1 307 51.31% 53 192
01.07.2015 Livdavor 1 337 50.44% 8 661
01.07.2015 MiroCRO787Dreamliner 1 025 49.28% 27 733
01.07.2015 CoravSamNaObaOka 2 280 56.11% 28 072
01.07.2015 Venom011 1 108 51.74% 15 336
30.06.2015 Guzovski 2 075 55.44% 28 007
29.06.2015 dmmusa8 1 077 48.77% 73 834
28.06.2015 MiroCRO787Dreamliner
from: [OSV] Osveta
1 025 49.28% 27 733
27.06.2015 Huhowsky 1 525 53.6% 25 536
27.06.2015 _JuDaS_WhO_SoLd_JeSuS_ 1 377 50.95% 24 743
27.06.2015 onlineding 1 608 53.54% 10 558
27.06.2015 Totomoto_SRB 1 430 51.76% 20 941
27.06.2015 cubak 1 719 53.68% 20 230
27.06.2015 Krakinjo 1 552 52.99% 25 594
27.06.2015 CroDemon 2 413 61.27% 3 783
26.06.2015 DABL 1 079 49.32% 33 006
26.06.2015 dr_Mckay_Zg 1 922 59.56% 1 580
26.06.2015 Kiseljak_94 1 671 53.68% 29 654
25.06.2015 kovac983
from: [OSV] Osveta
1 272 49.9% 30 955
25.06.2015 rjanos78
from: [OSV] Osveta
1 106 49.99% 25 093
24.06.2015 JonikkaSRB 1 575 53.14% 34 291
24.06.2015 kapularko 1 726 53.1% 38 402
24.06.2015 rocko73
from: [OSV] Osveta
1 279 51.31% 39 368
24.06.2015 djole_123
from: [OSV] Osveta
1 219 51.38% 19 617
24.06.2015 Aleksandar987
from: [OSV] Osveta
2 308 56.84% 20 981
24.06.2015 MartinNS
from: [OSV] Osveta
1 804 53.57% 83 890
22.06.2015 CraftyCatcher 1 583 52.25% 37 475
22.06.2015 slawwe 1 356 50.58% 30 537
22.06.2015 Reddro 1 673 52.28% 23 845
22.06.2015 Pyroclysm 1 227 49.42% 12 237
22.06.2015 leeman3 1 631 53.32% 8 624
22.06.2015 Veljance 1 386 50.29% 17 582
22.06.2015 mushufasa8 1 384 51.48% 26 257
22.06.2015 Xanotter 2 023 55.29% 21 842
22.06.2015 MrWhite45 1 536 51.61% 56 360
22.06.2015 Giorgi739 1 968 53.15% 26 258
21.06.2015 RuShEr__ 2 708 58.66% 12 046
21.06.2015 MrBiceps93
from: [OSV] Osveta
1 764 53.56% 16 551
20.06.2015 Angry_Sh4rk 3 114 60.45% 6 069
20.06.2015 270_Winchester 1 878 53.51% 21 096
19.06.2015 tony23pro
from: [OSV] Osveta
1 584 53.46% 48 916
16.06.2015 Armmin 1 543 51.51% 39 100
16.06.2015 kuzma_CRO_ 1 717 53.8% 16 497
16.06.2015 Armmin 1 543 51.51% 39 100
15.06.2015 Reddro 1 673 52.28% 23 845
13.06.2015 the_one_who_fails 1 548 53.03% 3 932
13.06.2015 Bosnian_Destroyer_ 1 302 52.45% 14 652
13.06.2015 HeavyDuty01 2 037 58.23% 2 976
12.06.2015 _CasusBelli 1 311 50.74% 7 767
12.06.2015 FireLeviathan 1 643 52.19% 27 074
12.06.2015 MrVictorius99 1 718 52.2% 14 424
12.06.2015 kapsel_brkini 1 926 55.85% 29 055
11.06.2015 _SN0B_ 2 401 60.73% 927
11.06.2015 viermicica 1 816 54.69% 45 183
09.06.2015 MaxMcMetal 2 120 60.32% 12 138
09.06.2015 _JuDaS_WhO_SoLd_JeSuS_ 1 377 50.95% 24 743
09.06.2015 Freaky_Dzibril 0 51.71% 36 984
09.06.2015 fillax 1 681 52.46% 32 794
08.06.2015 DugiM 1 676 56.81% 20 961
08.06.2015 Venom011 1 108 51.74% 15 336
07.06.2015 _dB 1 683 54.82% 15 056
07.06.2015 lewylewy 1 637 53.94% 28 120
06.06.2015 CroAce 1 827 53.56% 33 128
06.06.2015 Freaky_Dzibril 0 51.71% 36 984
06.06.2015 Alexcampea_Alexrodea 2 211 56.49% 1 409
06.06.2015 mickeY_raT 2 075 57.28% 19 948
06.06.2015 dokkli 1 757 54.75% 20 622
05.06.2015 Harlequin407 2 526 59.39% 31 217
05.06.2015 Alexcampea_Alexrodea 2 211 56.49% 1 409
05.06.2015 dokkli 1 757 54.75% 20 622
04.06.2015 00mihec00 2 206 57.28% 26 627
04.06.2015 GLUTES 2 120 55.22% 28 509
04.06.2015 W1ckedVarg 2 585 60.15% 906
04.06.2015 kapularko 1 726 53.1% 38 402
04.06.2015 kapsel_brkini 1 926 55.85% 29 055
03.06.2015 MaxMcMetal 2 120 60.32% 12 138
02.06.2015 mickeY_raT 2 075 57.28% 19 948
02.06.2015 Harlequin407 2 526 59.39% 31 217
02.06.2015 Xanotter 2 023 55.29% 21 842
02.06.2015 ToeCutter_1 1 438 51.15% 23 424
01.06.2015 kapularko 1 726 53.1% 38 402
30.05.2015 thesorin 1 807 53.94% 13 931
30.05.2015 Predatopreda 1 307 51.31% 53 192
30.05.2015 kuzma_CRO_ 1 717 53.8% 16 497
29.05.2015 slawwe 1 356 50.58% 30 537
29.05.2015 kakozasto 2 340 56.96% 26 684
28.05.2015 SkockoCRO 1 612 52.05% 12 460
28.05.2015 dadoni 1 673 53.66% 25 974
28.05.2015 00mihec00 2 206 57.28% 26 627
28.05.2015 guille186 1 914 53.58% 20 294
28.05.2015 l3go_l3g1um_CaP0 1 868 53.81% 50 889
27.05.2015 TenkistaizDuvna 1 214 49.51% 6 494
27.05.2015 Hvo1993 1 212 50.37% 10 800
27.05.2015 JopaPL 1 782 54.4% 2 046
27.05.2015 Vujko1990 2 171 55.61% 25 986
27.05.2015 _CasusBelli 1 311 50.74% 7 767
27.05.2015 Moriquend 1 883 56.04% 28 580
27.05.2015 Vysixo 1 874 54.82% 8 978
27.05.2015 kico987 2 372 59.42% 22 709
27.05.2015 JOK3R_1607 1 547 52.27% 29 126
27.05.2015 drColumbusOkrutni 1 946 54.47% 41 285
25.05.2015 Hemerdon 1 373 51.55% 28 811
25.05.2015 crvic 1 692 52.85% 30 553
24.05.2015 Orryx 1 574 51.92% 19 086
24.05.2015 da_phuq 2 190 56.48% 15 437
23.05.2015 gebajzler 1 321 50.37% 44 366
23.05.2015 njusho 1 192 49.57% 17 754
22.05.2015 ThE_BooMM 1 923 53.87% 42 248
21.05.2015 Kob4tus 1 819 55.52% 6 250
21.05.2015 Benouf 1 597 53.36% 15 647
21.05.2015 Viper_CRO 1 169 51.53% 11 443
21.05.2015 nemesis_cro 2 143 55.91% 50 422
21.05.2015 mamairena 1 523 51.47% 61 448
21.05.2015 MallaTina 1 000 49.19% 16 905
21.05.2015 Zlocesta_Buba 1 332 50.59% 27 599
21.05.2015 _ANABOLIQ_ 1 509 52.26% 22 691
18.05.2015 kozaribok 1 389 51.9% 20 919
18.05.2015 thesorin 1 807 53.94% 13 931
18.05.2015 ReFl33x 2 114 57.06% 16 478
17.05.2015 Mijo_Peh 2 129 56.01% 78 961
17.05.2015 Vysixo 1 874 54.82% 8 978
16.05.2015 _Mirjana_ 1 262 51.66% 8 025
16.05.2015 fillax 1 681 52.46% 32 794
16.05.2015 W1ckedVarg 2 585 60.15% 906
16.05.2015 Viper_CRO 1 169 51.53% 11 443
16.05.2015 ludivepar 1 312 52.26% 35 625
16.05.2015 guille186 1 914 53.58% 20 294
16.05.2015 kakozasto 2 340 56.96% 26 684
16.05.2015 piskoonline1969 1 466 52.04% 71 134
15.05.2015 HeavyDuty01 2 037 58.23% 2 976
15.05.2015 termomit 1 431 52.39% 41 618
15.05.2015 POMERIO20 1 473 51.89% 41 071
15.05.2015 MrWhite45 1 536 51.61% 56 360
14.05.2015 SkockoCRO 1 612 52.05% 12 460
14.05.2015 elektrix 2 265 59.15% 34 071
14.05.2015 kico987 2 372 59.42% 22 709
14.05.2015 drColumbusOkrutni 1 946 54.47% 41 285
13.05.2015 the_one_who_fails 1 548 53.03% 3 932
13.05.2015 _Mirjana_ 1 262 51.66% 8 025
13.05.2015 kapularko 1 726 53.1% 38 402
11.05.2015 Snajper_Saper 1 653 53.24% 37 215
11.05.2015 the_one_who_fails 1 548 53.03% 3 932
11.05.2015 Penetracija_Junior 1 901 55.49% 3 415
11.05.2015 budihudi_ 1 172 48.7% 27 473
11.05.2015 l3go_l3g1um_CaP0 1 868 53.81% 50 889
11.05.2015 JopaPL 1 782 54.4% 2 046
11.05.2015 mushufasa8 1 384 51.48% 26 257
11.05.2015 Pyroclysm 1 227 49.42% 12 237
10.05.2015 kapularko 1 726 53.1% 38 402
10.05.2015 JopaPL 1 782 54.4% 2 046
09.05.2015 djidji047 1 961 54.86% 22 943
09.05.2015 kapularko 1 726 53.1% 38 402
08.05.2015 nemesis_cro 2 143 55.91% 50 422
08.05.2015 the_one_who_fails 1 548 53.03% 3 932
08.05.2015 ReFl33x 2 114 57.06% 16 478
08.05.2015 ThePunisher_Alan237 1 605 52.77% 35 944
08.05.2015 TenkistaizDuvna 1 214 49.51% 6 494
04.05.2015 diabollo_83 1 645 52.74% 47 961
02.05.2015 krazy_8 1 839 53.69% 34 529
30.04.2015 Dragan_87 1 854 53.58% 36 097
29.04.2015 FireLeviathan 1 643 52.19% 27 074
29.04.2015 krazy_8 1 839 53.69% 34 529
28.04.2015 W1ckedVarg 2 585 60.15% 906
28.04.2015 PCkanuista 2 078 55.29% 10 815
27.04.2015 ZoranSRB1985 1 335 49.94% 27 723
27.04.2015 ThePunisher_Alan237 1 605 52.77% 35 944
26.04.2015 martin11215 1 211 49.82% 18 614
25.04.2015 drle11 1 265 50.45% 28 409
24.04.2015 Predatopreda 1 307 51.31% 53 192
24.04.2015 Kondor_Srb 1 232 50.17% 35 447
24.04.2015 zaravela 924 49.49% 6 959
24.04.2015 CroMan1 1 273 51.95% 16 472
24.04.2015 kljukica 1 517 51.92% 28 870
24.04.2015 ludivepar 1 312 52.26% 35 625
24.04.2015 Aleksandar 1 405 51.02% 32 698
24.04.2015 omega2002 1 367 51.42% 12 121
22.04.2015 mata190 1 724 54.11% 24 025
21.04.2015 Orryx 1 574 51.92% 19 086
20.04.2015 gillee 1 728 52.63% 21 937
20.04.2015 ljubosek007 1 319 50.17% 29 816
19.04.2015 VlKAMAN 2 724 62.83% 9 627
19.04.2015 Mr_Bombastikk 1 671 55.42% 37 575
19.04.2015 ThehandofGod1 2 240 60.1% 2 742
19.04.2015 POMERIO20 1 473 51.89% 41 071
18.04.2015 Snajper_Saper 1 653 53.24% 37 215
18.04.2015 vulcandabo 2 016 54.19% 25 308
17.04.2015 Kovix 1 453 51.24% 23 228
17.04.2015 Asky 2 005 54.89% 7 410
11.04.2015 kico987 2 372 59.42% 22 709
10.04.2015 dmmusa8 1 077 48.77% 73 834
10.04.2015 kncl08 1 346 51.27% 21 764
09.04.2015 ___Why_Always_Me___ 1 725 52.31% 20 606
09.04.2015 dadoni 1 673 53.66% 25 974
09.04.2015 kncl08 1 346 51.27% 21 764
08.04.2015 guille186 1 914 53.58% 20 294
06.04.2015 Predatopreda 1 307 51.31% 53 192
06.04.2015 Orryx 1 574 51.92% 19 086
06.04.2015 muhhamen 1 703 54.24% 60 719
06.04.2015 diabollo_83 1 645 52.74% 47 961
06.04.2015 ___Why_Always_Me___ 1 725 52.31% 20 606
05.04.2015 _TheJoker 2 289 57.33% 17 105
05.04.2015 Mr_Bombastikk 1 671 55.42% 37 575
05.04.2015 CyBeRpUnK 1 682 52.84% 51 016
01.04.2015 Merciful_Angel_SRB 2 032 57.38% 16 712
01.04.2015 Bold_Ruler 1 913 54.67% 28 227
30.03.2015 _Spirit_ 1 910 55.11% 22 660
30.03.2015 Copy2OG 1 227 51.75% 16 730
30.03.2015 Livdavor 1 337 50.44% 8 661
30.03.2015 CoravSamNaObaOka 2 280 56.11% 28 072
30.03.2015 Hvo1993 1 212 50.37% 10 800
29.03.2015 xxZeusxx 1 953 53.86% 10 220
29.03.2015 zliouka 1 616 61.53% 16 229
29.03.2015 Benouf 1 597 53.36% 15 647
29.03.2015 Machete86 1 623 51.55% 37 454
29.03.2015 DABL 1 079 49.32% 33 006
29.03.2015 ThehandofGod1 2 240 60.1% 2 742
28.03.2015 budihudi_ 1 172 48.7% 27 473
28.03.2015 ghidi 1 449 51.2% 17 604
27.03.2015 DenisTuzla 1 781 56.43% 1 299
26.03.2015 RageThunder71 1 505 52.58% 60 274
26.03.2015 DABL 1 079 49.32% 33 006
26.03.2015 vulcandabo 2 016 54.19% 25 308
26.03.2015 Mrljina 1 393 50.39% 20 623
26.03.2015 martin11215 1 211 49.82% 18 614
26.03.2015 Copy2OG 1 227 51.75% 16 730
25.03.2015 Cpt_Ljevarko 2 034 57.05% 12 475
24.03.2015 KalEl666 1 583 51.56% 11 866
24.03.2015 DeathScrap 2 090 55.68% 18 722
24.03.2015 Viper_CRO 1 169 51.53% 11 443
24.03.2015 SHARK81 1 993 55.1% 38 291
24.03.2015 drle11 1 265 50.45% 28 409
24.03.2015 kakozasto 2 340 56.96% 26 684
23.03.2015 Huhowsky 1 525 53.6% 25 536
22.03.2015 gebajzler 1 321 50.37% 44 366
22.03.2015 tigar007 1 856 51.96% 27 571
22.03.2015 svilenski 1 473 51.8% 34 524
22.03.2015 drColumbusOkrutni 1 946 54.47% 41 285
22.03.2015 GOLDSUCHT 1 901 66.77% 15 350
21.03.2015 Wexla 1 442 50.65% 22 190
21.03.2015 Kalauzz 1 893 53.73% 22 386
21.03.2015 Penetracija_Junior 1 901 55.49% 3 415
21.03.2015 shunqino 1 250 50.86% 46 204
21.03.2015 da_phuq 2 190 56.48% 15 437
21.03.2015 fillax 1 681 52.46% 32 794
21.03.2015 MallaTina 1 000 49.19% 16 905
21.03.2015 djidji047 1 961 54.86% 22 943
21.03.2015 RuShEr__ 2 708 58.66% 12 046
21.03.2015 mamairena 1 523 51.47% 61 448
21.03.2015 njusho 1 192 49.57% 17 754
21.03.2015 Zlocesta_Buba 1 332 50.59% 27 599
21.03.2015 _ANABOLIQ_ 1 509 52.26% 22 691
20.03.2015 zaravela 924 49.49% 6 959
20.03.2015 DeathScrap 2 090 55.68% 18 722
20.03.2015 VlKAMAN 2 724 62.83% 9 627
20.03.2015 LittleCaneCorso 1 512 52.8% 37 189
19.03.2015 senetosa2a 1 533 55.53% 27 676
19.03.2015 Bold_Ruler 1 913 54.67% 28 227
19.03.2015 komaracIVC 1 655 52.19% 22 286
18.03.2015 Krakinjo 1 552 52.99% 25 594
18.03.2015 Merciful_Angel_SRB 2 032 57.38% 16 712
17.03.2015 Loebi 1 476 51.18% 25 688
17.03.2015 Hvarska_Zvir 1 540 50.33% 39 882
16.03.2015 Loebi 1 476 51.18% 25 688
16.03.2015 Wexla 1 442 50.65% 22 190
16.03.2015 ZGDukemeister 2 055 55.75% 24 369
16.03.2015 LittleCaneCorso 1 512 52.8% 37 189
16.03.2015 muhhamen 1 703 54.24% 60 719
15.03.2015 Ghetto_max 1 851 55.23% 31 339
15.03.2015 SaMo_NaCl 1 652 52.68% 22 745
12.03.2015 SaMo_NaCl 1 652 52.68% 22 745
10.03.2015 KantaZaNabijanje 1 226 51% 29 859
09.03.2015 DenisTuzla 1 781 56.43% 1 299
09.03.2015 kljukica 1 517 51.92% 28 870
09.03.2015 Veljance 1 386 50.29% 17 582
08.03.2015 DonKronoX 1 628 52.9% 13 725
08.03.2015 CYKLA 1 519 51.61% 40 324
08.03.2015 Ludi_Tenkista_ 2 664 60.11% 2 547
08.03.2015 ZGDukemeister 2 055 55.75% 24 369
08.03.2015 tomica90 1 252 50.06% 12 730
06.03.2015 gerwoo 1 829 52.64% 29 846
06.03.2015 voodoo72 1 200 52.51% 12 908
06.03.2015 CRO_BRIGADA 1 805 59.95% 31 572
05.03.2015 ThE_BooMM 1 923 53.87% 42 248
05.03.2015 nevervarine 2 501 58.08% 58 416
05.03.2015 vulcandabo
from: [ME] IGNORE
2 016 54.19% 25 308
05.03.2015 Totomoto_SRB 1 430 51.76% 20 941
04.03.2015 CRO_BRIGADA 1 805 59.95% 31 572
01.03.2015 herman3 1 671 52.65% 45 423
28.02.2015 plywak23 1 369 50.47% 13 851
28.02.2015 Dr_Hico 2 365 59.55% 8 081
28.02.2015 plywak23 1 369 50.47% 13 851
27.02.2015